Flag for U.S.A. Weather past 2 weeks in Lansing, Michigan, U.S.A.

Now
61 °F

Sunny.


Feels Like: 61 °F
Forecast: 54 / 74 °F
Wind: 5 mph from Northeast

Location: Capital City Airport

Current Time: Jul 24, 2014 at 9:27:45 AM

Latest Report: Jul 24, 2014 at 8:53 AM


Visibility: 10 mi

Pressure: 30.16 "Hg

Humidity: 75%

Dew point: 53 °F

Location of LansingLocation

Historic Weather in Lansing — Graph

°F

Lansing temperature yesterday

Maximum temperature yesterday: 79 °F (at 12:53 AM)
Minimum temperature yesterday: 61 °F (at 11:53 PM)
Average temperature yesterday: 68 °F

Past Weeks' High & Low Weather Summary

 TemperatureHumidityPressure
High84 °F (Jul 21, 5:53 PM)96% (Jul 14, 6:53 AM)30.24 "Hg (Jul 14, 6:53 AM)
Low51 °F (Jul 16, 2:53 AM)39% (Jul 17, 5:53 PM)29.75 "Hg (Jul 15, 3:53 AM)
Average68 °F70%30.03 "Hg
* Reported Jul 9 8:53 AM — Jul 24 7:53 AM, Lansing, Weather by CustomWeather, © 2014

Note: Actual official high and low records may vary slightly from our data, if they occured in-between our weather recording intervals... More about our weather records

Advertising

Lansing weather history for previous 24 hours

 ConditionsComfort  
Time TempWeatherWind HumidityBarometerVisibility
7:53 AM
Jul 24
57 °FPassing clouds.6 mph81%30.15 "Hg10 mi
6:53 AM54 °FClear.6 mph86%30.14 "Hg10 mi
5:53 AM55 °FClear.6 mph87%30.12 "Hg10 mi
4:53 AM56 °FPassing clouds.6 mph90%30.11 "Hg10 mi
3:53 AM58 °FPassing clouds.6 mph90%30.11 "Hg10 mi
2:53 AM59 °FOvercast.No wind87%30.11 "Hg10 mi
1:53 AM58 °FPassing clouds.No wind87%30.11 "Hg10 mi
12:53 AM59 °FPassing clouds.3 mph84%30.12 "Hg10 mi
11:53 PM
Jul 23
61 °FPassing clouds.6 mph81%30.11 "Hg10 mi
10:53 PM62 °FPassing clouds.6 mph78%30.11 "Hg10 mi
9:53 PM64 °FScattered clouds.5 mph73%30.11 "Hg10 mi
8:53 PM66 °FScattered clouds.10 mph65%30.09 "Hg10 mi
7:53 PM70 °FPassing clouds.12 mph57%30.07 "Hg10 mi
6:53 PM72 °FPassing clouds.9 mph55%30.06 "Hg10 mi
5:53 PM73 °FSunny.10 mph53%30.06 "Hg10 mi
4:53 PM76 °FPartly sunny.9 mph52%30.06 "Hg10 mi
3:53 PM74 °FScattered clouds.12 mph52%30.06 "Hg10 mi
2:53 PM73 °FOvercast.8 mph55%30.08 "Hg10 mi
1:53 PM70 °FOvercast.7 mph59%30.09 "Hg10 mi
12:53 PM70 °FPartly sunny.12 mph59%30.08 "Hg10 mi
11:53 AM69 °FPassing clouds.14 mph63%30.07 "Hg10 mi
11:00 AM67 °FPartly sunny.14 mph66%30.07 "Hg10 mi
9:53 AM65 °FPassing clouds.12 mph70%30.05 "Hg10 mi
Weather by CustomWeather, © 2014

See weather overviewHow to use our weather pages